{"data":{"norad_id":52648,"epoch":"2026-05-25T02:16:48.451008Z","epoch_age_seconds":63888,"freshness":"FRESH","line1":"1 52648U 22052BC  26145.09500522  .00000016  00000+0  19091-4 0  9997","line2":"2 52648  53.2132 276.1226 0001243  87.6025 272.5109 15.08838912222666","mean_motion":15.08838912,"eccentricity":0.0001243,"inclination_deg":53.2132,"raan_deg":276.1226,"arg_perigee_deg":87.6025,"mean_anomaly_deg":272.5109,"bstar":1.9091e-5,"rev_number":22266,"period_min":95.437623496285,"perigee_km":538.88682160112,"apogee_km":540.60660749256,"semimajor_km":6917.8837145468,"source":"CELESTRAK","updated_at":"2026-05-25T13:38:17.208215Z"}}